| time (UTC) | temp F | wind direction | speed MPH | gust MPH | rain 1hr in | rain 24hr in | rain mn in | humidity % | barometer mb |
| 20260503201124 | 62 | 188 | 4.0 | 4.0 | 0.00 | 0.00 | 0.12 | 62 | 1009.1 |
| 20260503200958 | 61 | 179 | 3.0 | 10.0 | 0.00 | 0.12 | 0.12 | 62 | 1009.2 |
| 20260503200624 | 61 | 140 | 3.0 | 3.0 | 0.00 | 0.00 | 0.12 | 67 | 1009.5 |
| 20260503195958 | 59 | 346 | 2.0 | 7.0 | 0.00 | 0.12 | 0.12 | 73 | 1009.4 |
| 20260503195624 | 59 | 286 | 4.0 | 4.0 | 0.00 | 0.00 | 0.12 | 74 | 1009.8 |
| 20260503195456 | 58 | 281 | 0.0 | 8.0 | 0.00 | 0.12 | 0.12 | 73 | 1009.5 |
| 20260503194624 | 57 | 146 | 4.0 | 4.0 | 0.00 | 0.00 | 0.12 | 76 | 1009.8 |
| 20260503194456 | 57 | 48 | 4.0 | 12.0 | 0.00 | 0.12 | 0.12 | 76 | 1009.7 |
| 20260503193958 | 55 | 185 | 5.0 | 7.0 | 0.00 | 0.12 | 0.12 | 78 | 1009.9 |
| 20260503193624 | 55 | 119 | 3.0 | 3.0 | 0.00 | 0.00 | 0.12 | 80 | 1010.2 |
| 20260503192455 | 53 | 306 | 2.0 | 8.0 | 0.02 | 0.12 | 0.12 | 82 | 1010.2 |
| 20260503192125 | 53 | 144 | 2.0 | 2.0 | 0.00 | 0.00 | 0.12 | 81 | 1010.5 |
| 20260503191455 | 52 | 24 | 5.0 | 11.0 | 0.04 | 0.12 | 0.12 | 85 | 1010.4 |
| 20260503191124 | 52 | 61 | 2.0 | 2.0 | 0.00 | 0.00 | 0.12 | 86 | 1010.5 |
| 20260503190956 | 51 | 32 | 3.0 | 12.0 | 0.05 | 0.12 | 0.12 | 86 | 1010.5 |
| 20260503190455 | 50 | 277 | 2.0 | 12.0 | 0.07 | 0.12 | 0.12 | 87 | 1010.6 |
| 20260503190124 | 50 | 307 | 2.0 | 2.0 | 0.00 | 0.00 | 0.12 | 87 | 1010.8 |
| 20260503185957 | 50 | 19 | 2.0 | 8.0 | 0.07 | 0.12 | 0.12 | 86 | 1010.6 |
| 20260503185625 | 50 | 103 | 2.0 | 2.0 | 0.00 | 0.00 | 0.12 | 87 | 1010.8 |
| 20260503185454 | 49 | 313 | 2.0 | 8.0 | 0.07 | 0.12 | 0.12 | 86 | 1010.7 |
| 20260503184956 | 49 | 36 | 2.0 | 5.0 | 0.07 | 0.12 | 0.12 | 86 | 1010.9 |
| 20260503184455 | 49 | 139 | 3.0 | 5.0 | 0.08 | 0.12 | 0.12 | 86 | 1011.1 |
| 20260503183957 | 49 | 120 | 3.0 | 5.0 | 0.08 | 0.12 | 0.12 | 85 | 1011.3 |
| 20260503183625 | 50 | 327 | 2.0 | 2.0 | 0.06 | 0.00 | 0.11 | 85 | 1012.2 |
| 20260503182957 | 49 | 175 | 1.0 | 6.0 | 0.08 | 0.11 | 0.11 | 85 | 1012.4 |
| 20260503182625 | 50 | 192 | 1.0 | 1.0 | 0.11 | 0.00 | 0.11 | 84 | 1012.9 |
| 20260503182455 | 49 | 209 | 2.0 | 7.0 | 0.07 | 0.10 | 0.10 | 84 | 1012.7 |
| 20260503181957 | 50 | 186 | 2.0 | 9.0 | 0.07 | 0.09 | 0.09 | 83 | 1012.8 |
| 20260503181624 | 50 | 234 | 2.0 | 2.0 | 0.13 | 0.00 | 0.08 | 82 | 1013.2 |
| 20260503181455 | 50 | 233 | 2.0 | 7.0 | 0.06 | 0.08 | 0.08 | 82 | 1013.0 |
| 20260503181125 | 50 | 243 | 2.0 | 2.0 | 0.19 | 0.00 | 0.07 | 82 | 1013.2 |
| 20260503180454 | 50 | 198 | 1.0 | 8.0 | 0.04 | 0.05 | 0.05 | 83 | 1013.2 |
| 20260503180125 | 50 | 275 | 2.0 | 2.0 | 0.04 | 0.00 | 0.05 | 83 | 1013.5 |
| 20260503175957 | 50 | 242 | 2.0 | 8.0 | 0.05 | 0.05 | 0.05 | 83 | 1013.3 |
| 20260503175624 | 50 | 25 | 3.0 | 3.0 | 0.04 | 0.00 | 0.05 | 83 | 1013.5 |
| 20260503175454 | 50 | 215 | 1.0 | 6.0 | 0.05 | 0.05 | 0.05 | 83 | 1013.3 |
| 20260503175124 | 50 | 234 | 2.0 | 2.0 | 0.04 | 0.00 | 0.05 | 82 | 1013.5 |
| 20260503174956 | 50 | 179 | 4.0 | 7.0 | 0.05 | 0.05 | 0.05 | 82 | 1013.5 |
| 20260503174454 | 50 | 265 | 3.0 | 8.0 | 0.04 | 0.04 | 0.04 | 82 | 1013.5 |
| 20260503174124 | 50 | 176 | 3.0 | 3.0 | 0.06 | 0.00 | 0.04 | 82 | 1013.5 |
| 20260503173955 | 50 | 195 | 2.0 | 8.0 | 0.04 | 0.04 | 0.04 | 82 | 1013.6 |
| 20260503173624 | 50 | 206 | 3.0 | 3.0 | 0.06 | 0.00 | 0.04 | 82 | 1013.5 |
| 20260503173454 | 50 | 207 | 1.0 | 5.0 | 0.04 | 0.04 | 0.04 | 81 | 1013.6 |
| 20260503173124 | 51 | 203 | 2.0 | 2.0 | 0.07 | 0.00 | 0.03 | 81 | 1013.9 |
| 20260503172956 | 50 | 230 | 0.0 | 6.0 | 0.03 | 0.03 | 0.03 | 81 | 1013.8 |
| 20260503172624 | 51 | 265 | 3.0 | 3.0 | 0.08 | 0.00 | 0.03 | 80 | 1013.9 |
| 20260503172124 | 51 | 281 | 3.0 | 3.0 | 0.06 | 0.00 | 0.02 | 79 | 1014.2 |
| 20260503171956 | 51 | 276 | 1.0 | 9.0 | 0.02 | 0.02 | 0.02 | 78 | 1014.0 |
| 20260503171455 | 51 | 233 | 6.0 | 11.0 | 0.02 | 0.02 | 0.02 | 77 | 1014.1 |
| 20260503171124 | 52 | 355 | 4.0 | 4.0 | 0.00 | 0.00 | 0.01 | 77 | 1014.2 |
| 20260503170956 | 51 | 244 | 1.0 | 12.0 | 0.01 | 0.01 | 0.01 | 76 | 1014.0 |
| 20260503170624 | 52 | 216 | 4.0 | 4.0 | 0.00 | 0.00 | 0.01 | 75 | 1014.2 |
| 20260503170455 | 52 | 270 | 2.0 | 12.0 | 0.01 | 0.01 | 0.01 | 74 | 1013.9 |
| 20260503170124 | 52 | 284 | 5.0 | 5.0 | 0.00 | 0.00 | 0.00 | 73 | 1014.2 |
| 20260503150455 | 56 | 256 | 3.0 | 13.0 | 0.00 | 0.00 | 0.00 | 56 | 1013.9 |
| 20260503150125 | 56 | 83 | 3.0 | 3.0 | 0.00 | 0.00 | 0.00 | 58 | 1014.2 |
| 20260503140124 | 53 | 252 | 4.0 | 4.0 | 0.00 | 0.00 | 0.00 | 60 | 1014.9 |
| 20260503131125 | 51 | 186 | 4.0 | 4.0 | 0.00 | 0.00 | 0.00 | 61 | 1015.2 |
| 20260503130956 | 50 | 298 | 5.0 | 18.0 | 0.00 | 0.00 | 0.00 | 61 | 1014.9 |
| 20260503130454 | 50 | 218 | 5.0 | 13.0 | 0.00 | 0.00 | 0.00 | 61 | 1015.0 |
| 20260503130124 | 51 | 342 | 4.0 | 4.0 | 0.00 | 0.00 | 0.00 | 60 | 1015.2 |
| 20260503120124 | 47 | 206 | 2.0 | 2.0 | 0.00 | 0.00 | 0.00 | 62 | 1014.9 |
| 20260503110453 | 44 | 219 | 3.0 | 9.0 | 0.00 | 0.00 | 0.00 | 62 | 1014.8 |
| 20260503110124 | 45 | 216 | 3.0 | 3.0 | 0.00 | 0.00 | 0.00 | 63 | 1015.2 |
| 20260503090453 | 45 | 268 | 3.0 | 7.0 | 0.00 | 0.00 | 0.00 | 58 | 1015.0 |
| 20260503081453 | 45 | 264 | 3.0 | 8.0 | 0.00 | 0.00 | 0.00 | 60 | 1015.0 |
| 20260503080955 | 45 | 261 | 0.0 | 6.0 | 0.00 | 0.00 | 0.00 | 60 | 1015.0 |
| 20260503072451 | 43 | 279 | 0.0 | 3.0 | 0.00 | 0.00 | 0.00 | 63 | 1015.1 |
| 20260503071954 | 43 | 244 | 0.0 | 4.0 | 0.00 | 0.00 | 0.00 | 64 | 1015.1 |
| 20260503071452 | 43 | 269 | 1.0 | 4.0 | 0.00 | 0.00 | 0.00 | 64 | 1015.2 |
| 20260503070953 | 43 | 272 | 1.0 | 4.0 | 0.00 | 0.00 | 0.00 | 64 | 1015.2 |
| 20260503070452 | 43 | 276 | 2.0 | 4.0 | 0.00 | 0.00 | 0.00 | 64 | 1015.2 |
| 20260503054956 | 44 | 262 | 1.0 | 3.0 | 0.00 | 0.00 | 0.00 | 63 | 1015.9 |
| 20260503054455 | 44 | 263 | 2.0 | 3.0 | 0.00 | 0.00 | 0.00 | 62 | 1016.0 |
| 20260503053956 | 44 | 267 | 0.0 | 3.0 | 0.00 | 0.00 | 0.00 | 62 | 1016.0 |
| 20260503053455 | 45 | 234 | 1.0 | 3.0 | 0.00 | 0.00 | 0.00 | 62 | 1016.1 |
| 20260503052956 | 45 | 227 | 0.0 | 3.0 | 0.00 | 0.00 | 0.00 | 62 | 1016.1 |
| 20260503050956 | 45 | 252 | 1.0 | 2.0 | 0.00 | 0.00 | 0.00 | 62 | 1016.2 |
| 20260503050455 | 45 | 226 | 0.0 | 4.0 | 0.00 | 0.00 | 0.00 | 62 | 1016.3 |
| 20260503050010 | 45 | 223 | 1.0 | 3.0 | 0.00 | 0.00 | 0.00 | 62 | 1016.2 |
| 20260503045456 | 45 | 237 | 0.0 | 3.0 | 0.00 | 0.00 | 0.00 | 61 | 1016.3 |
| 20260503044456 | 45 | 292 | 0.0 | 3.0 | 0.00 | 0.00 | 0.00 | 62 | 1016.3 |
| 20260503043957 | 45 | 194 | 0.0 | 3.0 | 0.00 | 0.00 | 0.00 | 62 | 1016.3 |
| 20260503043456 | 45 | 236 | 2.0 | 2.0 | 0.00 | 0.00 | 0.00 | 62 | 1016.3 |
| 20260503042456 | 45 | 257 | 0.0 | 3.0 | 0.00 | 0.00 | 0.00 | 63 | 1016.3 |
| 20260503041456 | 45 | 197 | 0.0 | 4.0 | 0.00 | 0.00 | 0.00 | 63 | 1016.4 |
| 20260503040456 | 45 | 234 | 0.0 | 3.0 | 0.00 | 0.00 | 0.00 | 63 | 1016.4 |
| 20260503035958 | 45 | 239 | 0.0 | 2.0 | 0.00 | 0.00 | 0.00 | 63 | 1016.5 |
| 20260503035456 | 45 | 250 | 1.0 | 2.0 | 0.00 | 0.00 | 0.00 | 64 | 1016.5 |
| 20260503034957 | 45 | 252 | 0.0 | 2.0 | 0.00 | 0.00 | 0.00 | 63 | 1016.4 |
| 20260503034455 | 45 | 252 | 0.0 | 2.0 | 0.00 | 0.00 | 0.00 | 63 | 1016.5 |
| 20260503033957 | 45 | 254 | 1.0 | 1.0 | 0.00 | 0.00 | 0.00 | 63 | 1016.5 |
| 20260503033456 | 45 | 258 | 0.0 | 1.0 | 0.00 | 0.00 | 0.00 | 63 | 1016.4 |
| 20260503032957 | 45 | 258 | 0.0 | 0.0 | 0.00 | 0.00 | 0.00 | 63 | 1016.4 |
| 20260503032456 | 45 | 258 | 0.0 | 0.0 | 0.00 | 0.00 | 0.00 | 62 | 1016.4 |
| 20260503031957 | 45 | 258 | 0.0 | 0.0 | 0.00 | 0.00 | 0.00 | 62 | 1016.5 |
| 20260503031456 | 45 | 258 | 0.0 | 0.0 | 0.00 | 0.00 | 0.00 | 62 | 1016.5 |
| 20260503030957 | 45 | 258 | 0.0 | 0.0 | 0.00 | 0.00 | 0.00 | 62 | 1016.6 |
| 20260503030457 | 46 | 258 | 0.0 | 0.0 | 0.00 | 0.00 | 0.00 | 61 | 1016.6 |
| 20260503025959 | 46 | 258 | 0.0 | 0.0 | 0.00 | 0.00 | 0.00 | 61 | 1016.6 |
| 20260503024958 | 46 | 265 | 0.0 | 0.0 | 0.00 | 0.00 | 0.00 | 60 | 1016.7 |
| 20260503024456 | 46 | 265 | 0.0 | 0.0 | 0.00 | 0.00 | 0.00 | 60 | 1016.7 |
| 20260503023958 | 46 | 265 | 0.0 | 0.0 | 0.00 | 0.00 | 0.00 | 59 | 1016.6 |
| 20260503022958 | 47 | 265 | 0.0 | 0.0 | 0.00 | 0.00 | 0.00 | 59 | 1016.7 |
| 20260503022456 | 47 | 265 | 0.0 | 0.0 | 0.00 | 0.00 | 0.00 | 58 | 1016.6 |
| 20260503021957 | 47 | 265 | 0.0 | 0.0 | 0.00 | 0.00 | 0.00 | 57 | 1016.6 |
| 20260503021457 | 47 | 265 | 0.0 | 0.0 | 0.00 | 0.00 | 0.00 | 57 | 1016.6 |
| 20260503020957 | 47 | 265 | 0.0 | 0.0 | 0.00 | 0.00 | 0.00 | 57 | 1016.6 |
| 20260503020456 | 48 | 265 | 0.0 | 0.0 | 0.00 | 0.00 | 0.00 | 56 | 1016.6 |
| 20260503015455 | 48 | 265 | 0.0 | 0.0 | 0.00 | 0.00 | 0.00 | 55 | 1016.5 |
| 20260503014956 | 49 | 265 | 0.0 | 0.0 | 0.00 | 0.00 | 0.00 | 55 | 1016.5 |
| 20260503014455 | 49 | 265 | 0.0 | 0.0 | 0.00 | 0.00 | 0.00 | 54 | 1016.5 |
| 20260503013956 | 49 | 265 | 0.0 | 0.0 | 0.00 | 0.00 | 0.00 | 53 | 1016.4 |
| 20260503013455 | 50 | 265 | 0.0 | 0.0 | 0.00 | 0.00 | 0.00 | 53 | 1016.5 |
| 20260503012957 | 50 | 265 | 0.0 | 0.0 | 0.00 | 0.00 | 0.00 | 53 | 1016.4 |
| 20260503012455 | 50 | 265 | 0.0 | 0.0 | 0.00 | 0.00 | 0.00 | 52 | 1016.4 |
| 20260503011454 | 51 | 265 | 0.0 | 0.0 | 0.00 | 0.00 | 0.00 | 51 | 1016.3 |
| 20260503010956 | 52 | 265 | 0.0 | 0.0 | 0.00 | 0.00 | 0.00 | 50 | 1016.3 |
| 20260503005957 | 53 | 265 | 0.0 | 0.0 | 0.00 | 0.00 | 0.00 | 49 | 1016.3 |
| 20260503005456 | 53 | 265 | 0.0 | 0.0 | 0.00 | 0.00 | 0.00 | 47 | 1016.3 |
| 20260503004957 | 53 | 265 | 0.0 | 0.0 | 0.00 | 0.00 | 0.00 | 46 | 1016.3 |
| 20260503004457 | 54 | 265 | 0.0 | 0.0 | 0.00 | 0.00 | 0.00 | 46 | 1016.3 |
| 20260503003959 | 54 | 265 | 0.0 | 0.0 | 0.00 | 0.00 | 0.00 | 44 | 1016.4 |
| 20260503003457 | 54 | 265 | 0.0 | 2.0 | 0.00 | 0.00 | 0.00 | 44 | 1016.4 |
| 20260503002956 | 54 | 265 | 0.0 | 2.0 | 0.00 | 0.00 | 0.00 | 44 | 1016.3 |
| 20260503001457 | 54 | 265 | 0.0 | 3.0 | 0.00 | 0.00 | 0.00 | 43 | 1016.4 |
| 20260503000957 | 55 | 261 | 0.0 | 6.0 | 0.00 | 0.00 | 0.00 | 43 | 1016.4 |
| 20260503000457 | 55 | 261 | 1.0 | 6.0 | 0.00 | 0.00 | 0.00 | 41 | 1016.4 |
| 20260502235957 | 55 | 263 | 2.0 | 3.0 | 0.00 | 0.00 | 0.00 | 44 | 1016.5 |
| 20260502235455 | 55 | 232 | 0.0 | 2.0 | 0.00 | 0.00 | 0.00 | 43 | 1016.4 |
| 20260502233958 | 55 | 232 | 1.0 | 2.0 | 0.00 | 0.00 | 0.00 | 42 | 1016.5 |
| 20260502233457 | 55 | 251 | 1.0 | 3.0 | 0.00 | 0.00 | 0.00 | 41 | 1016.5 |
| 20260502232956 | 55 | 254 | 0.0 | 3.0 | 0.00 | 0.00 | 0.00 | 41 | 1016.5 |
| 20260502232455 | 55 | 249 | 2.0 | 4.0 | 0.00 | 0.00 | 0.00 | 41 | 1016.6 |
| 20260502231957 | 55 | 246 | 1.0 | 4.0 | 0.00 | 0.00 | 0.00 | 39 | 1016.6 |
| 20260502231455 | 56 | 273 | 2.0 | 6.0 | 0.00 | 0.00 | 0.00 | 40 | 1016.6 |
| 20260502230956 | 56 | 269 | 3.0 | 6.0 | 0.00 | 0.00 | 0.00 | 40 | 1016.6 |
| 20260502225956 | 56 | 257 | 0.0 | 3.0 | 0.00 | 0.00 | 0.00 | 38 | 1016.6 |
| 20260502225454 | 57 | 257 | 0.0 | 6.0 | 0.00 | 0.00 | 0.00 | 40 | 1016.6 |
| 20260502224956 | 57 | 255 | 4.0 | 6.0 | 0.00 | 0.00 | 0.00 | 39 | 1016.7 |
| 20260502224455 | 57 | 252 | 0.0 | 9.0 | 0.00 | 0.00 | 0.00 | 38 | 1016.6 |
| 20260502223955 | 57 | 257 | 0.0 | 9.0 | 0.00 | 0.00 | 0.00 | 38 | 1016.7 |
| 20260502223455 | 57 | 270 | 6.0 | 8.0 | 0.00 | 0.00 | 0.00 | 40 | 1016.7 |
| 20260502222956 | 58 | 257 | 2.0 | 8.0 | 0.00 | 0.00 | 0.00 | 37 | 1016.7 |
| 20260502222455 | 58 | 261 | 1.0 | 12.0 | 0.00 | 0.00 | 0.00 | 36 | 1016.7 |
| 20260502221956 | 59 | 271 | 1.0 | 7.0 | 0.00 | 0.00 | 0.00 | 37 | 1016.7 |
| 20260502220956 | 59 | 277 | 2.0 | 6.0 | 0.00 | 0.00 | 0.00 | 36 | 1016.7 |
| 20260502220456 | 59 | 257 | 1.0 | 4.0 | 0.00 | 0.00 | 0.00 | 40 | 1016.8 |
| 20260502215957 | 58 | 266 | 0.0 | 4.0 | 0.00 | 0.00 | 0.00 | 38 | 1016.7 |
| 20260502214956 | 58 | 249 | 0.0 | 5.0 | 0.00 | 0.00 | 0.00 | 37 | 1016.7 |
| 20260502214456 | 58 | 233 | 3.0 | 5.0 | 0.00 | 0.00 | 0.00 | 36 | 1016.8 |
| 20260502213455 | 59 | 262 | 0.0 | 8.0 | 0.00 | 0.00 | 0.00 | 40 | 1016.8 |
| 20260502212957 | 59 | 257 | 4.0 | 8.0 | 0.00 | 0.00 | 0.00 | 35 | 1016.7 |
| 20260502212455 | 60 | 284 | 3.0 | 5.0 | 0.00 | 0.00 | 0.00 | 36 | 1016.7 |
| 20260502211957 | 60 | 185 | 3.0 | 5.0 | 0.00 | 0.00 | 0.00 | 40 | 1016.8 |
| 20260502211456 | 60 | 257 | 3.0 | 6.0 | 0.00 | 0.00 | 0.00 | 35 | 1016.8 |
| 20260502210957 | 60 | 232 | 0.0 | 6.0 | 0.00 | 0.00 | 0.00 | 39 | 1016.8 |
| 20260502210000 | 59 | 242 | 2.0 | 7.0 | 0.00 | 0.00 | 0.00 | 36 | 1016.9 |
| 20260502205456 | 59 | 234 | 0.0 | 6.0 | 0.00 | 0.00 | 0.00 | 34 | 1017.0 |
| 20260502204455 | 60 | 16 | 0.0 | 3.0 | 0.00 | 0.00 | 0.00 | 39 | 1017.0 |
| 20260502203958 | 59 | 280 | 0.0 | 7.0 | 0.00 | 0.00 | 0.00 | 40 | 1017.1 |
| 20260502203455 | 59 | 259 | 0.0 | 7.0 | 0.00 | 0.00 | 0.00 | 38 | 1017.2 |
| 20260502202957 | 58 | 225 | 1.0 | 6.0 | 0.00 | 0.00 | 0.00 | 43 | 1017.3 |
| 20260502202455 | 58 | 242 | 2.0 | 6.0 | 0.00 | 0.00 | 0.00 | 42 | 1017.4 |
| 20260502201956 | 58 | 313 | 0.0 | 2.0 | 0.00 | 0.00 | 0.00 | 41 | 1017.5 |
| 20260502201456 | 58 | 325 | 0.0 | 3.0 | 0.00 | 0.00 | 0.00 | 36 | 1017.5 |